LEMUR-2-LAILA

导读

LEMUR-2-LAILA是美国于2025年11月28日发射的LEMUR-2系列小型卫星,由Spire Global公司开发。属于低地球轨道多用途立方星,延续了该系列模块化设计思路,它搭载遥感与接收设备,可开展气象数据探测、全球船舶自动识别系统监测,还能感知GPS信号干扰,为气象预报、海事监测和电子态势感知提供多源数据支撑,是商业航天小型卫星多任务应用的典型实践。

Basic Information
目录编号:
66776
目录名称:
LEMUR-2-LAILA
国际标识:
2025-276DQ
轨道中心:
EARTH
卫星名称:
LEMUR-2-LAILA
卫星全名:
LEMUR-2-LAILA
卫星状态:
在轨 (已飞行281 天)
发射日期:
2025-11-28 UTC
国别 :
美国 (US)
星等 :
--
Orbit Information
数据来源 国际轨道数据
星历时间: 2026-09-05T12:25:28+0800
5小时前
查看轨道信息
半长轴: 6877.856km
偏心率: 0.000047
轨道倾角: 97.411°
近地点辐角 128.289°
升交点赤经 320.906°
平近点角 231.839°
近地点: 499.395km
远地点: 500.043km
周期: 94.610分钟
每日圈数: 15.220298
Detailed Information
使用方式:
暂无
2D Orbit Map
3D Orbit Map
Orbit Altitude Analysis Chart
Orbit Inclination Analysis Chart
Orbit Comprehensive Analysis Chart
View Comprehensive Chart
Conjunction Data List
Event ID Objects TCA Miss Dist (km) Collision Risk Probability Collision Risk Index (CRI) Action
CDM_260905-130706-322606-677622
2026-09-05T
13:07:38+0000
0.929 km
远距离
3.542258E-5 中风险 0.66
CDM_260905-113206-322606-677622
2026-09-05T
11:32:59+0000
1.934 km
极远距离
3.163932E-6 低风险 0.45
CDM_260905-161606-322306-677622
2026-09-05T
16:16:35+0000
2.310 km
极远距离
2.070559E-6 低风险 0.41
CDM_260905-144206-322606-677622
2026-09-05T
14:42:17+0000
2.702 km
极远距离
1.561144E-6 低风险 0.39
CDM_260905-081206-443506-677621
2026-09-05T
08:12:46+0000
2.629 km
极远距离
8.106181E-7 极低风险 0.33